Weather Roundup
Issued by NWS Chicago, IL

Home | Current Version | Previous Version | Graphics & Text | Print | Product List | Glossary On
Versions: 1 2 3 4 5 6 7 8 9 10 11 12 13 14 15 16 17 18 19 20 21 22 23 24 25 26 27 28 29 30 31 32 33 34 35 36 37 38 39 40 41 42 43 44 45 46 47 48 49 50
000
NZUS59 KLOT 100803
HRRLOT

CHICAGO AREA WEATHER ROUNDUP
NATIONAL WEATHER SERVICE CHICAGO/ROMEOVILLE IL
200 AM CST SAT DEC 10 2016

NOTE: "FAIR" INDICATES FEW OR NO CLOUDS BELOW 12,000 FEET WITH NO
SIGNIFICANT WEATHER AND/OR OBSTRUCTIONS TO VISIBILITY.

* THESE STATIONS ARE NOT UNDER NWS QUALITY CONTROL. THEY ALSO MAY NOT
  REPORT WEATHER SUCH AS PRECIPITATION OR FOG.

ILZ005-006-012>014-019>023-100900-
NORTHEAST ILLINOIS

CITY           SKY/WX    TMP DP  RH WIND       PRES   REMARKS
OHARE          CLOUDY    19  11  70 W12       30.50S WCI   7
MIDWAY         CLOUDY    21  11  65 W7        30.51F WCI  12
AURORA         CLOUDY    20  14  77 W7        30.52S WCI  11
LANSING*       CLOUDY    20  15  81 W6        30.52S WCI  12
WAUKEGAN       CLOUDY    19  12  74 W6        30.47F WCI  11
DUPAGE AIRPORT CLOUDY    18  11  74 W8        30.50S WCI   8
WHEELING       CLOUDY    19  11  70 W6        30.52R WCI  11
KANKAKEE*      CLOUDY    23  15  71 W7        30.54S WCI  14
MORRIS*        CLOUDY    22  16  79 W3        30.52S
NORTHERLY ISL    N/A     21  11  65 W12         N/A  WCI   9
$$

WIZ051-052-058>065-066-070>072-100900-
SOUTHEAST WISCONSIN

CITY           SKY/WX    TMP DP  RH WIND       PRES   REMARKS
MILWAUKEE      CLOUDY    20  11  68 W7        30.46F WCI  11
KENOSHA*       CLOUDY    19  13  77 W10       30.48S WCI   7
RACINE*        CLOUDY    19  11  70 W7        30.48F WCI  10
BURLINGTON     PTCLDY    23  19  84 W7        30.47S WCI  14
WAUKESHA       MOCLDY    18  12  79 W8        30.46S WCI   7
WEST BEND      FLURRIES  18  12  79 W7        30.44S WCI   8
$$

INZ001>003-010>013-019-020-100900-
NORTHWEST INDIANA

CITY           SKY/WX    TMP DP  RH WIND       PRES   REMARKS
GARY*          CLOUDY    22  15  72 W6        30.52S WCI  15
MICHIGAN CITY* NOT AVBL
RENSSELAER*    NOT AVBL
VALPARAISO     CLOUDY    20  13  74 W7        30.51R WCI  11
$$

LMZ740>746-100900-
SOUTHERN LAKE MICHIGAN

STATION/POSITION TIME  SKY/WX   TEMP WIND        PRES    VSBY
                                AIR  DIR/SP/G
                 (UTC)          (F)  (DEG/KT/KT) (MB)    (MI)
HARRISON CRIB    NOT AVBL
BURNHAM HARBOR   0800            21  290/  9/ 11   N/A
CALUMET HARBOR   0730            20  250/  4/ 11 1032.5S
BURNS HARBOR     0740            24  260/ 19/ 24 1032.8S
MICHIGAN CITY    NOT AVBL
$$

ABBREVIATIONS USED IN REMARKS
   TC - TEMPERATURE IN CELSIUS
  WCI - WIND CHILL INDEX
   HX - HEAT INDEX
  VSB - VISIBILITY
$$



USA.gov is the U.S. government's official web portal to all federal, state and local government web resources and services.